FW4741 Weather Reports


Display with metric or nautical units.
time (UTC)temp
F
wind
direction
speed
MPH
gust
MPH
rain 1hr
in
rain 24hr
in
rain mn
in
humidity
%
barometer
mb
20260905064603 60 77 2.0 6.0 0.00 0.00 0.00 86 1023.1
20260905063604 60 77 2.0 6.0 0.00 0.00 0.00 86 1023.2
20260905062604 60 77 2.0 6.0 0.00 0.00 0.00 85 1023.2
20260905062103 60 77 2.0 6.0 0.00 0.00 0.00 86 1023.2
20260905061604 60 77 2.0 6.0 0.00 0.00 0.00 85 1023.2
20260905061103 60 77 2.0 6.0 0.00 0.00 0.00 86 1023.1
20260905060603 60 77 2.0 6.0 0.00 0.00 0.00 85 1023.1
20260905060103 61 77 2.0 6.0 0.00 0.00 0.00 85 1023.1
20260905055603 60 77 2.0 6.0 0.00 0.00 0.00 85 1023.1
20260905055104 60 77 2.0 6.0 0.00 0.00 0.00 86 1023.1
20260905054604 61 77 2.0 6.0 0.00 0.00 0.00 85 1023.1
20260905054104 61 77 2.0 6.0 0.00 0.00 0.00 84 1023.1
20260905053604 61 77 2.0 6.0 0.00 0.00 0.00 84 1023.1
20260905053104 61 77 2.0 6.0 0.00 0.00 0.00 84 1023.0
20260905052103 61 77 2.0 6.0 0.00 0.00 0.00 84 1023.1
20260905051604 61 77 2.0 6.0 0.00 0.00 0.00 83 1023.0
20260905051104 61 77 2.0 6.0 0.00 0.00 0.00 84 1023.0
20260905050604 62 77 2.0 6.0 0.00 0.00 0.00 84 1023.0
20260905050104 62 77 2.0 6.0 0.00 0.00 0.00 84 1023.1
20260905045604 61 77 2.0 6.0 0.00 0.00 0.00 84 1023.1
20260905045103 61 77 2.0 6.0 0.00 0.00 0.00 85 1023.1
20260905044603 61 77 2.0 6.0 0.00 0.00 0.00 85 1023.1
20260905044103 61 77 2.0 6.0 0.00 0.00 0.00 85 1023.1
20260905043604 61 77 2.0 6.0 0.00 0.00 0.00 87 1023.1
20260905042603 62 77 2.0 6.0 0.00 0.00 0.00 86 1023.2
20260905042103 62 77 2.0 6.0 0.00 0.00 0.00 86 1023.2
20260905041604 62 77 2.0 6.0 0.00 0.00 0.00 85 1023.2
20260905040604 62 77 2.0 6.0 0.00 0.00 0.00 86 1023.2
20260905040104 62 77 2.0 6.0 0.00 0.00 0.00 86 1023.2
20260905035603 62 77 2.0 6.0 0.00 0.00 0.00 86 1023.2
20260905035104 62 77 2.0 6.0 0.00 0.00 0.00 86 1023.2
20260905034604 62 77 2.0 6.0 0.00 0.00 0.00 86 1023.2
20260905034104 62 77 2.0 6.0 0.00 0.00 0.00 86 1023.2
20260905033604 62 77 2.0 6.0 0.00 0.00 0.00 87 1023.2
20260905033103 62 77 2.0 6.0 0.00 0.00 0.00 87 1023.1
20260905032604 62 77 2.0 6.0 0.00 0.00 0.00 88 1023.1
20260905032103 62 77 2.0 6.0 0.00 0.00 0.00 88 1023.1
20260905031605 61 77 2.0 6.0 0.00 0.00 0.00 89 1023.2
20260905031103 61 77 2.0 6.0 0.00 0.00 0.00 89 1023.1
20260905030603 62 77 2.0 6.0 0.00 0.00 0.00 89 1023.1
20260905030104 62 77 2.0 6.0 0.00 0.00 0.00 88 1022.9
20260905025603 62 77 2.0 6.0 0.00 0.00 0.00 87 1022.9
20260905025103 62 77 2.0 6.0 0.00 0.00 0.00 86 1022.8
20260905024104 62 77 2.0 6.0 0.00 0.00 0.00 85 1022.7
20260905023604 63 77 2.0 6.0 0.00 0.00 0.00 85 1022.6
20260905023103 62 77 2.0 6.0 0.00 0.00 0.00 86 1022.5
20260905022603 62 77 2.0 6.0 0.00 0.00 0.00 86 1022.6
20260905022104 63 77 2.0 6.0 0.00 0.00 0.00 85 1022.6
20260905021604 63 77 2.0 6.0 0.00 0.00 0.00 84 1022.6
20260905021104 63 77 2.0 6.0 0.00 0.00 0.00 84 1022.5
20260905020604 63 77 2.0 6.0 0.00 0.00 0.00 84 1022.5
20260905020104 63 77 2.0 6.0 0.00 0.00 0.00 85 1022.4
20260905015603 63 77 2.0 6.0 0.00 0.00 0.00 85 1022.4
20260905015104 63 77 2.0 6.0 0.00 0.00 0.00 85 1022.3
20260905014604 63 77 2.0 6.0 0.00 0.00 0.00 85 1022.3
20260905013604 63 77 2.0 6.0 0.00 0.00 0.00 85 1022.2
20260905013104 63 77 2.0 6.0 0.00 0.00 0.00 85 1022.2
20260905012604 63 77 2.0 6.0 0.00 0.00 0.00 85 1022.2
20260905012103 63 77 2.0 6.0 0.00 0.00 0.00 86 1022.1
20260905011603 64 77 2.0 6.0 0.00 0.00 0.00 85 1022.1
20260905011103 64 77 2.0 6.0 0.00 0.00 0.00 85 1022.0
20260905010104 64 77 2.0 6.0 0.00 0.00 0.00 86 1021.8
20260905005603 64 77 2.0 6.0 0.00 0.00 0.00 87 1021.8
20260905004606 64 77 2.0 6.0 0.00 0.00 0.00 86 1021.8
20260905004103 64 77 2.0 6.0 0.00 0.00 0.00 86 1021.7
20260905003604 64 77 2.0 6.0 0.00 0.00 0.00 85 1021.6
20260905003103 64 77 2.0 6.0 0.00 0.00 0.00 85 1021.6
20260905002604 64 77 2.0 6.0 0.00 0.00 0.00 84 1021.6
20260905002103 64 77 2.0 6.0 0.00 0.00 0.00 83 1021.6
20260905001104 65 77 2.0 6.0 0.00 0.00 0.00 81 1021.5
20260905000604 65 77 2.0 6.0 0.00 0.00 0.00 78 1021.4
20260904235603 65 77 2.0 6.0 0.00 0.00 0.00 76 1021.3
20260904235104 65 77 2.0 6.0 0.00 0.00 0.00 80 1021.2
20260904234603 64 77 2.0 6.0 0.00 0.00 0.00 82 1021.3
20260904234104 65 77 2.0 6.0 0.00 0.00 0.00 82 1021.3
20260904233604 65 77 2.0 6.0 0.00 0.00 0.00 80 1021.3
20260904232604 66 77 2.0 6.0 0.00 0.00 0.00 79 1021.3
20260904232103 66 77 2.0 6.0 0.00 0.00 0.00 79 1021.3
20260904231604 67 77 2.0 6.0 0.00 0.00 0.00 81 1021.3
20260904231104 69 77 2.0 6.0 0.00 0.00 0.00 80 1021.4
20260904230104 73 77 2.0 6.0 0.00 0.00 0.00 71 1021.2
20260904225104 75 77 2.0 6.0 0.00 0.00 0.00 63 1021.4
20260904224603 76 77 2.0 6.0 0.00 0.00 0.00 64 1021.3
20260904224104 76 77 2.0 6.0 0.00 0.00 0.00 61 1021.4
20260904223104 76 77 2.0 6.0 0.00 0.00 0.00 62 1021.3
20260904222603 76 77 2.0 6.0 0.00 0.00 0.00 62 1021.3
20260904221103 76 77 2.0 6.0 0.00 0.00 0.00 60 1021.2
20260904220604 76 77 2.0 6.0 0.00 0.00 0.00 61 1021.1
20260904220104 77 77 2.0 6.0 0.00 0.00 0.00 60 1021.1
20260904214604 77 77 2.0 6.0 0.00 0.00 0.00 59 1021.2
20260904214103 77 77 2.0 6.0 0.00 0.00 0.00 59 1021.3
20260904213603 77 77 2.0 6.0 0.00 0.00 0.00 60 1021.3
20260904212104 77 77 2.0 6.0 0.00 0.00 0.00 60 1021.4
20260904211104 76 77 2.0 6.0 0.00 0.00 0.00 60 1021.6
20260904210604 76 77 2.0 6.0 0.00 0.00 0.00 59 1021.6
20260904210104 77 77 2.0 6.0 0.00 0.00 0.00 59 1021.5
20260904205604 76 77 2.0 6.0 0.00 0.00 0.00 60 1021.6
20260904205104 76 77 2.0 6.0 0.00 0.00 0.00 58 1021.6
20260904204104 76 77 2.0 6.0 0.00 0.00 0.00 58 1021.7
20260904203604 76 77 2.0 6.0 0.00 0.00 0.00 58 1021.8
20260904203104 76 77 2.0 6.0 0.00 0.00 0.00 57 1021.9
20260904202103 76 77 2.0 6.0 0.00 0.00 0.00 57 1021.9
20260904201604 76 77 2.0 6.0 0.00 0.00 0.00 58 1022.0
20260904201103 76 77 2.0 6.0 0.00 0.00 0.00 57 1022.0
20260904195603 76 77 2.0 6.0 0.00 0.00 0.00 57 1022.1
20260904195104 76 77 2.0 6.0 0.00 0.00 0.00 57 1022.2
20260904194604 76 77 2.0 6.0 0.00 0.00 0.00 55 1022.2
20260904193605 77 77 2.0 6.0 0.00 0.00 0.00 57 1022.3
20260904193104 77 77 2.0 6.0 0.00 0.00 0.00 55 1022.3
20260904192603 77 77 2.0 6.0 0.00 0.00 0.00 54 1022.3
20260904192104 77 77 2.0 6.0 0.00 0.00 0.00 55 1022.4
20260904191604 77 77 2.0 6.0 0.00 0.00 0.00 56 1022.4
20260904191103 76 77 2.0 6.0 0.00 0.00 0.00 57 1022.5
20260904190104 77 77 2.0 6.0 0.00 0.00 0.00 55 1022.5
20260904185603 77 77 2.0 6.0 0.00 0.00 0.00 54 1022.5
20260904184604 76 77 2.0 6.0 0.00 0.00 0.00 54 1022.6
20260904184103 76 77 2.0 6.0 0.00 0.00 0.00 53 1022.6
20260904183604 76 77 2.0 6.0 0.00 0.00 0.00 54 1022.6
20260904183103 76 77 2.0 6.0 0.00 0.00 0.00 54 1022.7
20260904182604 76 77 2.0 6.0 0.00 0.00 0.00 56 1022.7
20260904181604 75 77 2.0 6.0 0.00 0.00 0.00 54 1022.8
20260904181104 75 77 2.0 6.0 0.00 0.00 0.00 54 1022.8
20260904180604 74 77 2.0 6.0 0.00 0.00 0.00 55 1022.9
20260904180104 74 77 2.0 6.0 0.00 0.00 0.00 57 1023.0
20260904175604 74 77 2.0 6.0 0.00 0.00 0.00 56 1023.0
20260904175104 74 77 2.0 6.0 0.00 0.00 0.00 58 1023.0
20260904174604 74 77 2.0 6.0 0.00 0.00 0.00 58 1023.0
20260904173103 73 77 2.0 6.0 0.00 0.00 0.00 59 1023.1
20260904171604 74 77 2.0 6.0 0.00 0.00 0.00 55 1023.2
20260904171104 74 77 2.0 6.0 0.00 0.00 0.00 52 1023.2
20260904170604 74 77 2.0 6.0 0.00 0.00 0.00 52 1023.2
20260904165604 73 77 2.0 6.0 0.00 0.00 0.00 56 1023.3
20260904165103 73 77 2.0 6.0 0.00 0.00 0.00 55 1023.3
20260904164604 72 77 2.0 6.0 0.00 0.00 0.00 58 1023.3
20260904164103 72 77 2.0 6.0 0.00 0.00 0.00 59 1023.4
20260904163604 72 77 2.0 6.0 0.00 0.00 0.00 59 1023.4
20260904163104 71 77 2.0 6.0 0.00 0.00 0.00 58 1023.5
20260904162604 71 77 2.0 6.0 0.00 0.00 0.00 61 1023.5
20260904161604 71 77 2.0 6.0 0.00 0.00 0.00 61 1023.5
20260904161104 71 77 2.0 6.0 0.00 0.00 0.00 62 1023.5
20260904160604 71 77 2.0 6.0 0.00 0.00 0.00 62 1023.5
20260904160104 71 77 2.0 6.0 0.00 0.00 0.00 62 1023.5
20260904155604 71 77 2.0 6.0 0.00 0.00 0.00 61 1023.5
20260904155104 70 77 2.0 6.0 0.00 0.00 0.00 63 1023.5
20260904154603 70 77 2.0 6.0 0.00 0.00 0.00 63 1023.5
20260904154104 69 77 2.0 6.0 0.00 0.00 0.00 62 1023.5
20260904153603 69 77 2.0 6.0 0.00 0.00 0.00 62 1023.6
20260904153103 69 77 2.0 6.0 0.00 0.00 0.00 61 1023.6
20260904152603 68 77 2.0 6.0 0.00 0.00 0.00 63 1023.5
20260904152104 68 77 2.0 6.0 0.00 0.00 0.00 63 1023.5
20260904150604 67 77 2.0 6.0 0.00 0.00 0.00 65 1023.5
20260904150104 66 77 2.0 6.0 0.00 0.00 0.00 65 1023.5
20260904145603 66 77 2.0 6.0 0.00 0.00 0.00 66 1023.6
20260904144604 65 77 2.0 6.0 0.00 0.00 0.00 68 1023.5
20260904144104 64 77 2.0 6.0 0.00 0.00 0.00 69 1023.4
20260904143604 64 77 2.0 6.0 0.00 0.00 0.00 69 1023.4
20260904141603 62 77 2.0 6.0 0.00 0.00 0.00 73 1023.4
20260904141104 62 77 2.0 6.0 0.00 0.00 0.00 74 1023.3
20260904140604 61 77 2.0 6.0 0.00 0.00 0.00 74 1023.3
20260904140103 61 77 2.0 6.0 0.00 0.00 0.00 75 1023.3
20260904135603 60 77 2.0 6.0 0.00 0.00 0.00 76 1023.4
20260904135104 60 77 2.0 6.0 0.00 0.00 0.00 76 1023.3
20260904133104 57 77 2.0 6.0 0.00 0.00 0.00 80 1023.3
20260904132104 56 77 2.0 6.0 0.00 0.00 0.00 83 1023.3
20260904131603 56 77 2.0 6.0 0.00 0.00 0.00 85 1023.3
20260904131103 55 77 2.0 6.0 0.00 0.00 0.00 86 1023.4
20260904125603 56 77 2.0 6.0 0.00 0.00 0.00 83 1023.4
20260904125103 56 77 2.0 6.0 0.00 0.00 0.00 82 1023.4
20260904124604 56 77 2.0 6.0 0.00 0.00 0.00 83 1023.3
20260904124104 55 77 2.0 6.0 0.00 0.00 0.00 84 1023.3
20260904123604 55 77 2.0 6.0 0.00 0.00 0.00 86 1023.3
20260904123104 55 77 2.0 6.0 0.00 0.00 0.00 86 1023.3
20260904122603 56 77 2.0 6.0 0.00 0.00 0.00 84 1023.3
20260904122104 56 77 2.0 6.0 0.00 0.00 0.00 83 1023.2
20260904121604 56 77 2.0 6.0 0.00 0.00 0.00 83 1023.1
20260904120104 56 77 2.0 6.0 0.00 0.00 0.00 84 1023.1
20260904115604 56 77 2.0 6.0 0.00 0.00 0.00 84 1023.1
20260904115104 56 77 2.0 6.0 0.00 0.00 0.00 85 1023.0
20260904114603 56 77 2.0 6.0 0.00 0.00 0.00 86 1023.0
20260904114104 56 77 2.0 6.0 0.00 0.00 0.00 85 1022.9
20260904113603 56 77 2.0 6.0 0.00 0.00 0.00 85 1022.9
20260904113103 56 77 2.0 6.0 0.00 0.00 0.00 85 1023.0
20260904112604 56 77 2.0 6.0 0.00 0.00 0.00 85 1023.0
20260904111603 56 77 2.0 6.0 0.00 0.00 0.00 85 1022.9
20260904111104 56 77 2.0 6.0 0.00 0.00 0.00 85 1022.9
20260904110604 57 77 2.0 6.0 0.00 0.00 0.00 84 1022.9
20260904105604 58 77 2.0 6.0 0.00 0.00 0.00 82 1022.9
20260904105104 58 77 2.0 6.0 0.00 0.00 0.00 82 1022.9
20260904104604 58 77 2.0 6.0 0.00 0.00 0.00 82 1022.9
20260904104104 58 77 2.0 6.0 0.00 0.00 0.00 81 1022.9
20260904103604 58 77 2.0 6.0 0.00 0.00 0.00 81 1022.9
20260904103104 58 77 2.0 6.0 0.00 0.00 0.00 81 1022.9
20260904102603 58 77 2.0 6.0 0.00 0.00 0.00 81 1022.9
20260904102103 57 77 2.0 6.0 0.00 0.00 0.00 83 1022.9
20260904101604 57 77 2.0 6.0 0.00 0.00 0.00 83 1022.9
20260904100604 57 77 2.0 6.0 0.00 0.00 0.00 84 1023.0
20260904095604 57 77 2.0 6.0 0.00 0.00 0.00 84 1022.9
20260904095103 57 77 2.0 6.0 0.00 0.00 0.00 85 1022.9
20260904094604 57 77 2.0 6.0 0.00 0.00 0.00 85 1022.9
20260904094103 57 77 2.0 6.0 0.00 0.00 0.00 85 1022.9
20260904093604 58 77 2.0 6.0 0.00 0.00 0.00 85 1022.9
20260904092603 59 77 2.0 6.0 0.00 0.00 0.00 83 1022.9
20260904092103 60 77 2.0 6.0 0.00 0.00 0.00 80 1022.9
20260904091604 60 77 2.0 6.0 0.00 0.00 0.00 79 1022.9
20260904091104 60 77 2.0 6.0 0.00 0.00 0.00 79 1022.8
20260904090604 60 77 2.0 6.0 0.00 0.00 0.00 79 1022.8
20260904085604 59 77 2.0 6.0 0.00 0.00 0.00 80 1022.8
20260904085104 59 77 2.0 6.0 0.00 0.00 0.00 81 1022.8
20260904084604 59 77 2.0 6.0 0.00 0.00 0.00 83 1022.8
20260904084104 59 77 2.0 6.0 0.00 0.00 0.00 83 1022.8
20260904082603 60 77 2.0 6.0 0.00 0.00 0.00 82 1022.9
20260904082104 60 77 2.0 6.0 0.00 0.00 0.00 82 1022.9
20260904081604 60 77 2.0 6.0 0.00 0.00 0.00 82 1022.9
20260904081104 60 77 2.0 6.0 0.00 0.00 0.00 82 1022.9
20260904080604 59 77 2.0 6.0 0.00 0.00 0.00 82 1023.0
20260904074603 60 77 2.0 6.0 0.00 0.00 0.00 81 1022.9
20260904074104 60 77 2.0 6.0 0.00 0.00 0.00 80 1022.8
20260904073604 60 77 2.0 6.0 0.00 0.00 0.00 81 1022.8
20260904072603 60 77 2.0 6.0 0.00 0.00 0.00 81 1022.8
20260904072104 61 77 2.0 6.0 0.00 0.00 0.00 80 1022.8
20260904071103 62 77 2.0 6.0 0.00 0.00 0.00 78 1022.7
20260904070603 62 77 2.0 6.0 0.00 0.00 0.00 77 1022.8
20260904065603 63 77 2.0 6.0 0.00 0.00 0.00 75 1022.8